Time,TemperatureF,DewpointF,PressureIn,WindDirection,WindDirectionDegrees,WindSpeedMPH,WindSpeedGustMPH,Humidity,HourlyPrecipIn,Conditions,Clouds,dailyrainin,SoftwareType,DateUTC
2013-05-19 00:02:00,51.3,33.3,30.32,ESE,118,4.0,6.0,50,0.00,,,0.00,meteohub,2013-05-19 04:02:00,
2013-05-19 00:03:00,51.3,33.3,30.32,ESE,110,5.0,6.0,50,0.00,,,0.00,meteohub,2013-05-19 04:03:00,
2013-05-19 00:08:00,51.1,33.1,30.32,ESE,122,4.0,6.0,50,0.00,,,0.00,meteohub,2013-05-19 04:08:00,
2013-05-19 00:13:00,51.1,33.1,30.32,SE,135,4.0,6.0,50,0.00,,,0.00,meteohub,2013-05-19 04:13:00,
2013-05-19 00:18:00,50.7,33.3,30.32,East,101,4.0,6.0,51,0.00,,,0.00,meteohub,2013-05-19 04:18:00,
2013-05-19 00:23:00,50.7,32.7,30.32,SE,128,4.0,6.0,50,0.00,,,0.00,meteohub,2013-05-19 04:23:00,
2013-05-19 00:28:00,50.5,32.5,30.32,SE,135,3.0,6.0,50,0.00,,,0.00,meteohub,2013-05-19 04:28:00,
2013-05-19 00:33:00,50.5,32.5,30.32,ESE,121,4.0,4.0,50,0.00,,,0.00,meteohub,2013-05-19 04:33:00,
2013-05-19 00:38:00,50.4,32.4,30.32,ESE,110,5.0,5.0,50,0.00,,,0.00,meteohub,2013-05-19 04:38:00,
2013-05-19 00:43:00,50.2,32.7,30.32,SE,124,5.0,6.0,51,0.00,,,0.00,meteohub,2013-05-19 04:43:00,
2013-05-19 00:48:00,50.2,33.3,30.32,ESE,107,4.0,6.0,52,0.00,,,0.00,meteohub,2013-05-19 04:48:00,
2013-05-19 00:53:00,50.0,32.5,30.32,East,89,4.0,6.0,51,0.00,,,0.00,meteohub,2013-05-19 04:53:00,
2013-05-19 00:58:00,49.8,32.9,30.32,SE,133,3.0,6.0,52,0.00,,,0.00,meteohub,2013-05-19 04:58:00,
2013-05-19 01:03:00,49.6,33.3,30.32,East,91,3.0,6.0,53,0.00,,,0.00,meteohub,2013-05-19 05:03:00,
2013-05-19 01:08:00,49.5,33.1,30.32,ESE,118,4.0,6.0,53,0.00,,,0.00,meteohub,2013-05-19 05:08:00,
2013-05-19 01:13:00,49.3,33.3,30.32,East,88,3.0,6.0,54,0.00,,,0.00,meteohub,2013-05-19 05:13:00,
2013-05-19 01:18:00,49.3,33.3,30.32,East,79,3.0,5.0,54,0.00,,,0.00,meteohub,2013-05-19 05:18:00,
2013-05-19 01:23:00,48.9,33.4,30.32,SE,125,3.0,5.0,55,0.00,,,0.00,meteohub,2013-05-19 05:23:00,
2013-05-19 01:28:00,48.9,33.4,30.32,ESE,109,3.0,5.0,55,0.00,,,0.00,meteohub,2013-05-19 05:28:00,
2013-05-19 01:33:00,48.7,34.2,30.32,East,97,2.0,6.0,57,0.00,,,0.00,meteohub,2013-05-19 05:33:00,
2013-05-19 01:38:00,48.7,33.8,30.32,ESE,111,3.0,6.0,56,0.00,,,0.00,meteohub,2013-05-19 05:38:00,
2013-05-19 01:43:00,48.6,34.0,30.32,ESE,107,3.0,6.0,57,0.00,,,0.00,meteohub,2013-05-19 05:43:00,
2013-05-19 01:48:00,48.4,34.3,30.32,SE,127,3.0,6.0,58,0.00,,,0.00,meteohub,2013-05-19 05:48:00,
2013-05-19 01:53:00,48.4,34.3,30.32,ESE,104,4.0,6.0,58,0.00,,,0.00,meteohub,2013-05-19 05:53:00,
2013-05-19 01:58:00,48.0,34.9,30.32,ENE,59,3.0,5.0,60,0.00,,,0.00,meteohub,2013-05-19 05:58:00,
2013-05-19 02:03:00,48.0,34.3,30.32,East,101,2.0,5.0,59,0.00,,,0.00,meteohub,2013-05-19 06:03:00,
2013-05-19 02:08:00,47.8,34.2,30.32,ESE,112,0.0,5.0,59,0.00,,,0.00,meteohub,2013-05-19 06:08:00,
2013-05-19 02:13:00,47.8,34.7,30.32,East,91,3.0,5.0,60,0.00,,,0.00,meteohub,2013-05-19 06:13:00,
2013-05-19 02:18:00,47.8,34.7,30.32,ESE,109,4.0,5.0,60,0.00,,,0.00,meteohub,2013-05-19 06:18:00,
2013-05-19 02:23:00,47.7,34.5,30.32,ESE,121,3.0,5.0,60,0.00,,,0.00,meteohub,2013-05-19 06:23:00,
2013-05-19 02:28:00,47.5,35.6,30.32,ENE,59,0.0,5.0,63,0.00,,,0.00,meteohub,2013-05-19 06:28:00,
2013-05-19 02:33:00,47.5,35.6,30.32,East,92,0.0,4.0,63,0.00,,,0.00,meteohub,2013-05-19 06:33:00,
2013-05-19 02:38:00,47.5,35.6,30.32,ESE,108,3.0,4.0,63,0.00,,,0.00,meteohub,2013-05-19 06:38:00,
2013-05-19 02:43:00,47.5,35.1,30.32,ESE,111,3.0,4.0,62,0.00,,,0.00,meteohub,2013-05-19 06:43:00,
2013-05-19 02:48:00,47.5,35.1,30.32,ENE,77,3.0,4.0,62,0.00,,,0.00,meteohub,2013-05-19 06:48:00,
2013-05-19 02:53:00,47.5,35.6,30.32,NE,50,3.0,4.0,63,0.00,,,0.00,meteohub,2013-05-19 06:53:00,
2013-05-19 02:58:00,47.3,35.8,30.32,ENE,60,0.0,4.0,64,0.00,,,0.00,meteohub,2013-05-19 06:58:00,
2013-05-19 03:03:00,47.3,36.5,30.32,NE,51,0.0,4.0,66,0.00,,,0.00,meteohub,2013-05-19 07:03:00,
2013-05-19 03:08:00,47.1,36.7,30.32,NE,51,3.0,4.0,67,0.00,,,0.00,meteohub,2013-05-19 07:08:00,
2013-05-19 03:13:00,47.3,36.9,30.32,ESE,103,3.0,4.0,67,0.00,,,0.00,meteohub,2013-05-19 07:13:00,
2013-05-19 03:18:00,47.3,36.5,30.32,SE,134,0.0,5.0,66,0.00,,,0.00,meteohub,2013-05-19 07:18:00,
2013-05-19 03:23:00,47.3,36.1,30.35,ENE,72,4.0,5.0,65,0.00,,,0.00,meteohub,2013-05-19 07:23:00,
2013-05-19 03:28:00,47.1,36.7,30.35,ESE,111,4.0,5.0,67,0.00,,,0.00,meteohub,2013-05-19 07:28:00,
2013-05-19 03:33:00,47.1,36.7,30.35,ESE,114,4.0,7.0,67,0.00,,,0.00,meteohub,2013-05-19 07:33:00,
2013-05-19 03:38:00,47.1,36.7,30.35,ESE,111,3.0,7.0,67,0.00,,,0.00,meteohub,2013-05-19 07:38:00,
2013-05-19 03:43:00,46.9,36.5,30.35,ENE,65,3.0,6.0,67,0.00,,,0.00,meteohub,2013-05-19 07:43:00,
2013-05-19 03:48:00,46.9,36.5,30.35,ESE,122,4.0,6.0,67,0.00,,,0.00,meteohub,2013-05-19 07:48:00,
2013-05-19 03:53:00,46.9,36.5,30.35,SE,129,3.0,6.0,67,0.00,,,0.00,meteohub,2013-05-19 07:53:00,
2013-05-19 03:58:00,46.9,36.5,30.35,ESE,117,0.0,6.0,67,0.00,,,0.00,meteohub,2013-05-19 07:58:00,
2013-05-19 04:03:00,46.8,36.3,30.35,ESE,118,4.0,6.0,67,0.00,,,0.00,meteohub,2013-05-19 08:03:00,
2013-05-19 04:08:00,46.8,36.7,30.35,ESE,109,4.0,6.0,68,0.00,,,0.00,meteohub,2013-05-19 08:08:00,
2013-05-19 04:13:00,46.8,37.2,30.35,East,95,3.0,6.0,69,0.00,,,0.00,meteohub,2013-05-19 08:13:00,
2013-05-19 04:18:00,46.6,37.8,30.35,ENE,70,0.0,6.0,71,0.00,,,0.00,meteohub,2013-05-19 08:18:00,
2013-05-19 04:23:00,46.6,37.8,30.35,ESE,119,4.0,5.0,71,0.00,,,0.00,meteohub,2013-05-19 08:23:00,
2013-05-19 04:28:00,46.6,37.4,30.35,ESE,106,3.0,5.0,70,0.00,,,0.00,meteohub,2013-05-19 08:28:00,
2013-05-19 04:33:00,46.4,37.2,30.35,ENE,70,4.0,5.0,70,0.00,,,0.00,meteohub,2013-05-19 08:33:00,
2013-05-19 04:38:00,46.2,38.1,30.35,ENE,71,3.0,5.0,73,0.00,,,0.00,meteohub,2013-05-19 08:38:00,
2013-05-19 04:43:00,46.4,37.9,30.35,ESE,112,4.0,5.0,72,0.00,,,0.00,meteohub,2013-05-19 08:43:00,
2013-05-19 04:48:00,46.4,37.6,30.35,ESE,103,3.0,5.0,71,0.00,,,0.00,meteohub,2013-05-19 08:48:00,
2013-05-19 04:53:00,46.6,37.8,30.35,ESE,105,4.0,5.0,71,0.00,,,0.00,meteohub,2013-05-19 08:53:00,
2013-05-19 04:58:00,46.6,37.8,30.35,ESE,118,3.0,4.0,71,0.00,,,0.00,meteohub,2013-05-19 08:58:00,
2013-05-19 05:03:00,46.4,37.6,30.35,NE,51,2.0,4.0,71,0.00,,,0.00,meteohub,2013-05-19 09:03:00,
2013-05-19 05:08:00,46.4,37.6,30.35,ESE,114,3.0,4.0,71,0.00,,,0.00,meteohub,2013-05-19 09:08:00,
2013-05-19 05:13:00,46.4,37.9,30.35,East,87,0.0,4.0,72,0.00,,,0.00,meteohub,2013-05-19 09:13:00,
2013-05-19 05:18:00,46.4,37.9,30.35,ESE,102,4.0,4.0,72,0.00,,,0.00,meteohub,2013-05-19 09:18:00,
2013-05-19 05:23:00,46.4,37.9,30.35,ESE,119,3.0,4.0,72,0.00,,,0.00,meteohub,2013-05-19 09:23:00,
2013-05-19 05:29:00,46.4,37.6,30.35,ESE,113,3.0,4.0,71,0.00,,,0.00,meteohub,2013-05-19 09:29:00,
2013-05-19 05:33:00,46.2,37.4,30.35,ESE,112,4.0,4.0,71,0.00,,,0.00,meteohub,2013-05-19 09:33:00,
2013-05-19 05:39:00,46.4,37.2,30.35,ESE,123,3.0,5.0,70,0.00,,,0.00,meteohub,2013-05-19 09:39:00,
2013-05-19 05:44:00,46.2,37.0,30.35,ESE,112,3.0,5.0,70,0.00,,,0.00,meteohub,2013-05-19 09:44:00,
2013-05-19 05:49:00,46.2,37.0,30.35,ESE,108,2.0,5.0,70,0.00,,,0.00,meteohub,2013-05-19 09:49:00,
2013-05-19 05:54:00,46.2,36.7,30.35,ESE,114,3.0,5.0,69,0.00,,,0.00,meteohub,2013-05-19 09:54:00,
2013-05-19 05:59:00,46.0,36.9,30.35,ESE,114,0.0,4.0,70,0.00,,,0.00,meteohub,2013-05-19 09:59:00,
2013-05-19 06:04:00,45.9,37.0,30.35,ENE,64,0.0,4.0,71,0.00,,,0.00,meteohub,2013-05-19 10:04:00,
2013-05-19 06:09:00,45.7,37.6,30.35,NE,48,0.0,4.0,73,0.00,,,0.00,meteohub,2013-05-19 10:09:00,
2013-05-19 06:14:00,45.7,37.9,30.35,NE,48,0.0,4.0,74,0.00,,,0.00,meteohub,2013-05-19 10:14:00,
2013-05-19 06:19:00,45.7,37.9,30.35,NE,48,0.0,0.0,74,0.00,,,0.00,meteohub,2013-05-19 10:19:00,
2013-05-19 06:24:00,45.7,38.3,30.35,NE,48,0.0,0.0,75,0.00,,,0.00,meteohub,2013-05-19 10:24:00,
2013-05-19 06:29:00,45.7,38.5,30.35,NE,48,0.0,0.0,76,0.00,,,0.00,meteohub,2013-05-19 10:29:00,
2013-05-19 06:34:00,45.7,38.5,30.35,NE,48,0.0,0.0,76,0.00,,,0.00,meteohub,2013-05-19 10:34:00,
2013-05-19 06:39:00,45.9,38.7,30.35,ESE,115,0.0,0.0,76,0.00,,,0.00,meteohub,2013-05-19 10:39:00,
2013-05-19 06:44:00,46.0,38.5,30.35,ESE,103,3.0,0.0,75,0.00,,,0.00,meteohub,2013-05-19 10:44:00,
2013-05-19 06:49:00,46.0,38.3,30.35,ESE,109,3.0,0.0,74,0.00,,,0.00,meteohub,2013-05-19 10:49:00,
2013-05-19 06:54:00,46.2,38.5,30.35,ESE,105,3.0,5.0,74,0.00,,,0.00,meteohub,2013-05-19 10:54:00,
2013-05-19 06:59:00,46.4,38.3,30.35,ESE,106,2.0,5.0,73,0.00,,,0.00,meteohub,2013-05-19 10:59:00,
2013-05-19 07:04:00,46.8,38.3,30.35,ESE,102,3.0,5.0,72,0.00,,,0.00,meteohub,2013-05-19 11:04:00,
2013-05-19 07:09:00,46.9,38.3,30.38,ESE,113,0.0,4.0,72,0.00,,,0.00,meteohub,2013-05-19 11:09:00,
2013-05-19 07:14:00,47.1,38.5,30.38,East,86,0.0,4.0,72,0.00,,,0.00,meteohub,2013-05-19 11:14:00,
2013-05-19 07:19:00,47.3,38.3,30.38,ESE,109,0.0,4.0,71,0.00,,,0.00,meteohub,2013-05-19 11:19:00,
2013-05-19 07:24:00,47.3,38.3,30.38,SE,131,3.0,4.0,71,0.00,,,0.00,meteohub,2013-05-19 11:24:00,
2013-05-19 07:29:00,47.8,38.5,30.38,NE,44,0.0,4.0,70,0.00,,,0.00,meteohub,2013-05-19 11:29:00,
2013-05-19 07:34:00,47.5,38.5,30.38,SE,125,0.0,4.0,71,0.00,,,0.00,meteohub,2013-05-19 11:34:00,
2013-05-19 07:39:00,48.2,38.8,30.38,SE,125,0.0,4.0,70,0.00,,,0.00,meteohub,2013-05-19 11:39:00,
2013-05-19 07:44:00,48.7,39.4,30.38,SE,125,0.0,4.0,70,0.00,,,0.00,meteohub,2013-05-19 11:44:00,
2013-05-19 07:49:00,49.3,39.9,30.38,SE,125,0.0,0.0,70,0.00,,,0.00,meteohub,2013-05-19 11:49:00,
2013-05-19 07:54:00,49.3,39.6,30.38,ENE,60,3.0,0.0,69,0.00,,,0.00,meteohub,2013-05-19 11:54:00,
2013-05-19 07:59:00,49.8,39.7,30.38,ENE,64,4.0,0.0,68,0.00,,,0.00,meteohub,2013-05-19 11:59:00,
2013-05-19 08:04:00,50.5,39.9,30.38,East,93,0.0,0.0,67,0.00,,,0.00,meteohub,2013-05-19 12:04:00,
2013-05-19 08:09:00,50.9,39.9,30.38,East,93,0.0,5.0,66,0.00,,,0.00,meteohub,2013-05-19 12:09:00,
2013-05-19 08:14:00,52.0,40.6,30.38,NE,54,3.0,5.0,65,0.00,,,0.00,meteohub,2013-05-19 12:14:00,
2013-05-19 08:19:00,52.7,40.8,30.38,ESE,116,0.0,4.0,64,0.00,,,0.00,meteohub,2013-05-19 12:19:00,
2013-05-19 08:24:00,51.8,38.8,30.38,NE,48,0.0,4.0,61,0.00,,,0.00,meteohub,2013-05-19 12:24:00,
2013-05-19 08:29:00,52.7,39.6,30.38,ENE,74,0.0,4.0,61,0.00,,,0.00,meteohub,2013-05-19 12:29:00,
2013-05-19 08:34:00,54.1,40.6,30.38,SE,128,0.0,4.0,60,0.00,,,0.00,meteohub,2013-05-19 12:34:00,
2013-05-19 08:39:00,55.6,41.5,30.38,SE,124,4.0,0.0,59,0.00,,,0.00,meteohub,2013-05-19 12:39:00,
2013-05-19 08:44:00,56.3,41.2,30.38,SE,130,4.0,0.0,57,0.00,,,0.00,meteohub,2013-05-19 12:44:00,
2013-05-19 08:49:00,57.0,41.5,30.38,East,101,6.0,6.0,56,0.00,,,0.00,meteohub,2013-05-19 12:49:00,
2013-05-19 08:54:00,57.7,41.7,30.38,SE,130,4.0,6.0,55,0.00,,,0.00,meteohub,2013-05-19 12:54:00,
2013-05-19 08:59:00,58.5,41.9,30.38,ESE,109,4.0,6.0,54,0.00,,,0.00,meteohub,2013-05-19 12:59:00,
2013-05-19 09:04:00,58.8,41.2,30.38,ESE,109,6.0,6.0,52,0.00,,,0.00,meteohub,2013-05-19 13:04:00,
2013-05-19 09:09:00,59.2,41.0,30.38,ESE,118,5.0,6.0,51,0.00,,,0.00,meteohub,2013-05-19 13:09:00,
2013-05-19 09:14:00,57.9,39.4,30.38,ESE,120,4.0,6.0,50,0.00,,,0.00,meteohub,2013-05-19 13:14:00,
2013-05-19 09:19:00,59.0,40.5,30.38,SE,130,5.0,6.0,50,0.00,,,0.00,meteohub,2013-05-19 13:19:00,
2013-05-19 09:24:00,60.4,41.7,30.38,SE,134,4.0,6.0,50,0.00,,,0.00,meteohub,2013-05-19 13:24:00,
2013-05-19 09:29:00,61.3,42.1,30.38,ESE,119,6.0,6.0,49,0.00,,,0.00,meteohub,2013-05-19 13:29:00,
2013-05-19 09:34:00,61.0,41.2,30.38,ESE,122,4.0,6.0,48,0.00,,,0.00,meteohub,2013-05-19 13:34:00,
2013-05-19 09:39:00,61.5,41.2,30.38,SE,126,5.0,6.0,47,0.00,,,0.00,meteohub,2013-05-19 13:39:00,
2013-05-19 09:44:00,60.6,40.3,30.38,ESE,112,5.0,6.0,47,0.00,,,0.00,meteohub,2013-05-19 13:44:00,
2013-05-19 09:49:00,60.8,39.9,30.38,ESE,120,3.0,6.0,46,0.00,,,0.00,meteohub,2013-05-19 13:49:00,
2013-05-19 09:54:00,61.2,40.3,30.38,SE,128,3.0,6.0,46,0.00,,,0.00,meteohub,2013-05-19 13:54:00,
2013-05-19 09:59:00,61.3,40.5,30.38,ESE,112,3.0,6.0,46,0.00,,,0.00,meteohub,2013-05-19 13:59:00,
2013-05-19 10:04:00,61.0,39.6,30.38,ESE,112,0.0,5.0,45,0.00,,,0.00,meteohub,2013-05-19 14:04:00,
2013-05-19 10:09:00,61.2,39.7,30.38,SE,146,4.0,5.0,45,0.00,,,0.00,meteohub,2013-05-19 14:09:00,
2013-05-19 10:14:00,61.9,40.3,30.38,ESE,122,4.0,5.0,45,0.00,,,0.00,meteohub,2013-05-19 14:14:00,
2013-05-19 10:19:00,61.9,40.3,30.38,ESE,115,6.0,6.0,45,0.00,,,0.00,meteohub,2013-05-19 14:19:00,
2013-05-19 10:24:00,61.5,39.9,30.35,ESE,103,3.0,6.0,45,0.00,,,0.00,meteohub,2013-05-19 14:24:00,
2013-05-19 10:29:00,61.0,38.8,30.35,SE,131,4.0,6.0,44,0.00,,,0.00,meteohub,2013-05-19 14:29:00,
2013-05-19 10:34:00,61.0,39.6,30.35,SE,127,3.0,6.0,45,0.00,,,0.00,meteohub,2013-05-19 14:34:00,
2013-05-19 10:39:00,61.3,39.7,30.35,SE,131,4.0,6.0,45,0.00,,,0.00,meteohub,2013-05-19 14:39:00,
2013-05-19 10:44:00,61.5,39.9,30.35,East,96,5.0,6.0,45,0.00,,,0.00,meteohub,2013-05-19 14:44:00,
2013-05-19 10:49:00,62.1,41.0,30.35,SE,134,5.0,8.0,46,0.00,,,0.00,meteohub,2013-05-19 14:49:00,
2013-05-19 10:54:00,62.2,40.6,30.35,SE,130,5.0,8.0,45,0.00,,,0.00,meteohub,2013-05-19 14:54:00,
2013-05-19 10:59:00,62.2,40.6,30.35,SE,132,4.0,8.0,45,0.00,,,0.00,meteohub,2013-05-19 14:59:00,
2013-05-19 11:04:00,62.6,41.0,30.35,SE,132,4.0,8.0,45,0.00,,,0.00,meteohub,2013-05-19 15:04:00,
2013-05-19 11:09:00,62.6,40.5,30.35,SE,132,3.0,8.0,44,0.00,,,0.00,meteohub,2013-05-19 15:09:00,
2013-05-19 11:14:00,62.1,39.9,30.35,SE,132,0.0,5.0,44,0.00,,,0.00,meteohub,2013-05-19 15:14:00,
2013-05-19 11:19:00,62.4,40.3,30.35,SE,132,0.0,4.0,44,0.00,,,0.00,meteohub,2013-05-19 15:19:00,
2013-05-19 11:24:00,62.6,40.5,30.35,SE,132,0.0,4.0,44,0.00,,,0.00,meteohub,2013-05-19 15:24:00,
2013-05-19 11:29:00,63.1,40.8,30.35,SE,132,0.0,0.0,44,0.00,,,0.00,meteohub,2013-05-19 15:29:00,
2013-05-19 11:34:00,63.5,41.2,30.35,SE,132,3.0,5.0,44,0.00,,,0.00,meteohub,2013-05-19 15:34:00,
2013-05-19 11:39:00,63.9,41.5,30.35,SE,128,3.0,5.0,44,0.00,,,0.00,meteohub,2013-05-19 15:39:00,
2013-05-19 11:44:00,63.7,41.4,30.35,SE,135,5.0,5.0,44,0.00,,,0.00,meteohub,2013-05-19 15:44:00,
2013-05-19 11:49:00,64.0,41.2,30.35,SE,126,5.0,5.0,43,0.00,,,0.00,meteohub,2013-05-19 15:49:00,
2013-05-19 11:54:00,64.2,41.2,30.35,SE,132,5.0,6.0,43,0.00,,,0.00,meteohub,2013-05-19 15:54:00,
2013-05-19 11:59:00,64.6,41.5,30.35,ESE,112,6.0,6.0,43,0.00,,,0.00,meteohub,2013-05-19 15:59:00,
2013-05-19 12:04:00,64.8,41.2,30.35,SE,141,4.0,6.0,42,0.00,,,0.00,meteohub,2013-05-19 16:04:00,
2013-05-19 12:09:00,64.9,40.6,30.35,SE,126,3.0,6.0,41,0.00,,,0.00,meteohub,2013-05-19 16:09:00,
2013-05-19 12:14:00,65.5,41.7,30.35,East,95,5.0,9.0,42,0.00,,,0.00,meteohub,2013-05-19 16:14:00,
2013-05-19 12:19:00,65.1,40.8,30.35,ESE,123,3.0,9.0,41,0.00,,,0.00,meteohub,2013-05-19 16:19:00,
2013-05-19 12:24:00,65.1,40.8,30.32,SE,129,5.0,9.0,41,0.00,,,0.00,meteohub,2013-05-19 16:24:00,
2013-05-19 12:29:00,65.8,41.5,30.32,ESE,123,6.0,9.0,41,0.00,,,0.00,meteohub,2013-05-19 16:29:00,
2013-05-19 12:34:00,65.7,41.4,30.32,SE,124,5.0,6.0,41,0.00,,,0.00,meteohub,2013-05-19 16:34:00,
2013-05-19 12:39:00,65.1,39.6,30.32,ESE,116,4.0,6.0,39,0.00,,,0.00,meteohub,2013-05-19 16:39:00,
2013-05-19 12:44:00,64.9,41.4,30.32,SE,125,4.0,6.0,42,0.00,,,0.00,meteohub,2013-05-19 16:44:00,
2013-05-19 12:49:00,64.9,40.6,30.32,SE,135,3.0,8.0,41,0.00,,,0.00,meteohub,2013-05-19 16:49:00,
2013-05-19 12:55:00,64.8,41.2,30.32,ESE,113,6.0,8.0,42,0.00,,,0.00,meteohub,2013-05-19 16:55:00,
2013-05-19 13:00:00,65.1,42.1,30.32,SE,128,5.0,8.0,43,0.00,,,0.00,meteohub,2013-05-19 17:00:00,
2013-05-19 13:05:00,65.1,41.5,30.32,SE,133,9.0,9.0,42,0.00,,,0.00,meteohub,2013-05-19 17:05:00,
2013-05-19 13:10:00,65.5,41.2,30.32,SE,127,11.0,11.0,41,0.00,,,0.00,meteohub,2013-05-19 17:10:00,
2013-05-19 13:15:00,65.3,40.3,30.32,SE,129,11.0,13.0,40,0.00,,,0.00,meteohub,2013-05-19 17:15:00,
2013-05-19 13:20:00,65.1,40.8,30.32,SE,137,12.0,14.0,41,0.00,,,0.00,meteohub,2013-05-19 17:20:00,
2013-05-19 13:25:00,65.5,41.2,30.32,SE,134,9.0,14.0,41,0.00,,,0.00,meteohub,2013-05-19 17:25:00,
2013-05-19 13:30:00,65.5,40.5,30.32,ESE,113,8.0,14.0,40,0.00,,,0.00,meteohub,2013-05-19 17:30:00,
2013-05-19 13:35:00,65.3,41.0,30.32,SE,135,14.0,14.0,41,0.00,,,0.00,meteohub,2013-05-19 17:35:00,
2013-05-19 13:40:00,64.9,40.6,30.32,South,175,8.0,14.0,41,0.00,,,0.00,meteohub,2013-05-19 17:40:00,
2013-05-19 13:45:00,65.3,41.0,30.32,SE,138,9.0,14.0,41,0.00,,,0.00,meteohub,2013-05-19 17:45:00,
2013-05-19 13:50:00,64.8,40.5,30.32,ESE,117,11.0,14.0,41,0.00,,,0.00,meteohub,2013-05-19 17:50:00,
2013-05-19 13:55:00,64.4,41.4,30.29,ESE,114,10.0,13.0,43,0.00,,,0.00,meteohub,2013-05-19 17:55:00,
2013-05-19 14:00:00,64.4,41.4,30.29,ESE,120,8.0,13.0,43,0.00,,,0.00,meteohub,2013-05-19 18:00:00,
2013-05-19 14:05:00,64.4,41.4,30.29,ESE,122,6.0,13.0,43,0.00,,,0.00,meteohub,2013-05-19 18:05:00,
2013-05-19 14:10:00,64.4,41.4,30.29,SE,124,8.0,13.0,43,0.00,,,0.00,meteohub,2013-05-19 18:10:00,
2013-05-19 14:15:00,64.2,41.2,30.29,SE,127,13.0,13.0,43,0.00,,,0.00,meteohub,2013-05-19 18:15:00,
2013-05-19 14:20:00,64.0,40.5,30.29,ESE,118,8.0,14.0,42,0.00,,,0.00,meteohub,2013-05-19 18:20:00,
2013-05-19 14:25:00,63.9,41.0,30.29,SE,133,9.0,14.0,43,0.00,,,0.00,meteohub,2013-05-19 18:25:00,
2013-05-19 14:30:00,63.7,40.8,30.29,SE,131,6.0,14.0,43,0.00,,,0.00,meteohub,2013-05-19 18:30:00,
2013-05-19 14:35:00,63.7,41.4,30.29,SE,129,8.0,13.0,44,0.00,,,0.00,meteohub,2013-05-19 18:35:00,
2013-05-19 14:40:00,63.3,41.0,30.29,ESE,108,10.0,11.0,44,0.00,,,0.00,meteohub,2013-05-19 18:40:00,
2013-05-19 14:45:00,63.1,41.5,30.29,SE,128,10.0,11.0,45,0.00,,,0.00,meteohub,2013-05-19 18:45:00,
2013-05-19 14:50:00,63.1,41.5,30.29,ESE,114,9.0,12.0,45,0.00,,,0.00,meteohub,2013-05-19 18:50:00,
2013-05-19 14:55:00,63.0,40.6,30.29,SE,127,8.0,12.0,44,0.00,,,0.00,meteohub,2013-05-19 18:55:00,
2013-05-19 15:00:00,63.0,41.4,30.29,SE,125,11.0,11.0,45,0.00,,,0.00,meteohub,2013-05-19 19:00:00,
2013-05-19 15:05:00,62.8,41.2,30.29,SE,131,5.0,11.0,45,0.00,,,0.00,meteohub,2013-05-19 19:05:00,
2013-05-19 15:10:00,62.8,41.2,30.29,SE,130,7.0,11.0,45,0.00,,,0.00,meteohub,2013-05-19 19:10:00,
2013-05-19 15:15:00,62.6,41.0,30.29,SSE,158,3.0,11.0,45,0.00,,,0.00,meteohub,2013-05-19 19:15:00,
2013-05-19 15:20:00,62.4,41.4,30.29,SE,139,6.0,9.0,46,0.00,,,0.00,meteohub,2013-05-19 19:20:00,
2013-05-19 15:25:00,62.2,41.2,30.29,ESE,121,6.0,9.0,46,0.00,,,0.00,meteohub,2013-05-19 19:25:00,
2013-05-19 15:30:00,62.2,41.2,30.29,SE,134,5.0,9.0,46,0.00,,,0.00,meteohub,2013-05-19 19:30:00,
2013-05-19 15:35:00,62.1,41.0,30.29,ESE,110,2.0,9.0,46,0.00,,,0.00,meteohub,2013-05-19 19:35:00,
2013-05-19 15:40:00,61.7,41.2,30.29,SE,126,0.0,8.0,47,0.00,,,0.00,meteohub,2013-05-19 19:40:00,
2013-05-19 15:45:00,61.2,41.9,30.29,NW,324,0.0,7.0,49,0.00,,,0.00,meteohub,2013-05-19 19:45:00,
2013-05-19 15:50:00,60.6,41.9,30.29,NW,324,0.0,7.0,50,0.00,,,0.00,meteohub,2013-05-19 19:50:00,
2013-05-19 15:55:00,60.3,42.1,30.29,WNW,298,0.0,3.0,51,0.00,,,0.00,meteohub,2013-05-19 19:55:00,
2013-05-19 16:00:00,59.9,42.8,30.29,NNW,340,0.0,0.0,53,0.00,,,0.00,meteohub,2013-05-19 20:00:00,
2013-05-19 16:05:00,59.7,43.5,30.29,NNW,348,4.0,0.0,55,0.00,,,0.00,meteohub,2013-05-19 20:05:00,
2013-05-19 16:10:00,59.4,43.2,30.29,NNW,342,3.0,0.0,55,0.00,,,0.00,meteohub,2013-05-19 20:10:00,
2013-05-19 16:15:00,59.4,43.7,30.29,NNW,331,0.0,4.0,56,0.00,,,0.00,meteohub,2013-05-19 20:15:00,
2013-05-19 16:20:00,59.2,43.9,30.29,NNE,15,0.0,4.0,57,0.00,,,0.00,meteohub,2013-05-19 20:20:00,
2013-05-19 16:25:00,59.0,43.3,30.29,WNW,287,0.0,4.0,56,0.00,,,0.00,meteohub,2013-05-19 20:25:00,
2013-05-19 16:30:00,58.8,43.7,30.29,NNW,331,0.0,4.0,57,0.00,,,0.00,meteohub,2013-05-19 20:30:00,
2013-05-19 16:35:00,58.8,43.2,30.29,NW,320,0.0,4.0,56,0.00,,,0.00,meteohub,2013-05-19 20:35:00,
2013-05-19 16:40:00,58.6,43.0,30.29,NW,322,0.0,4.0,56,0.00,,,0.00,meteohub,2013-05-19 20:40:00,
2013-05-19 16:45:00,58.5,43.3,30.29,NW,323,0.0,4.0,57,0.00,,,0.00,meteohub,2013-05-19 20:45:00,
2013-05-19 16:50:00,58.3,43.5,30.29,NNW,341,3.0,4.0,58,0.00,,,0.00,meteohub,2013-05-19 20:50:00,
2013-05-19 16:55:00,58.1,43.9,30.29,WNW,283,0.0,4.0,59,0.00,,,0.00,meteohub,2013-05-19 20:55:00,
2013-05-19 17:00:00,58.1,43.9,30.29,NW,321,0.0,4.0,59,0.00,,,0.00,meteohub,2013-05-19 21:00:00,
2013-05-19 17:05:00,58.1,44.2,30.29,NW,320,0.0,4.0,60,0.00,,,0.00,meteohub,2013-05-19 21:05:00,
2013-05-19 17:10:00,58.1,43.9,30.29,NNE,31,0.0,4.0,59,0.00,,,0.00,meteohub,2013-05-19 21:10:00,
2013-05-19 17:15:00,57.9,43.7,30.29,WSW,254,0.0,3.0,59,0.00,,,0.00,meteohub,2013-05-19 21:15:00,
2013-05-19 17:20:00,57.7,43.9,30.29,NNW,333,4.0,4.0,60,0.00,,,0.00,meteohub,2013-05-19 21:20:00,
2013-05-19 17:25:00,57.6,44.2,30.29,NW,317,3.0,6.0,61,0.00,,,0.00,meteohub,2013-05-19 21:25:00,
2013-05-19 17:30:00,57.6,44.2,30.29,NW,325,0.0,6.0,61,0.00,,,0.00,meteohub,2013-05-19 21:30:00,
2013-05-19 17:35:00,57.6,43.7,30.29,NNE,27,0.0,6.0,60,0.00,,,0.00,meteohub,2013-05-19 21:35:00,
2013-05-19 17:40:00,57.6,44.2,30.29,North,357,0.0,4.0,61,0.00,,,0.00,meteohub,2013-05-19 21:40:00,
2013-05-19 17:45:00,57.4,44.4,30.29,North,2,0.0,5.0,62,0.00,,,0.00,meteohub,2013-05-19 21:45:00,
2013-05-19 17:50:00,57.2,44.2,30.29,SSW,195,0.0,5.0,62,0.00,,,0.00,meteohub,2013-05-19 21:50:00,
2013-05-19 17:55:00,57.2,44.2,30.29,West,274,0.0,5.0,62,0.00,,,0.00,meteohub,2013-05-19 21:55:00,
2013-05-19 18:00:00,56.8,44.4,30.29,West,274,0.0,4.0,63,0.00,,,0.00,meteohub,2013-05-19 22:00:00,
2013-05-19 18:05:00,57.0,44.6,30.29,West,274,0.0,2.0,63,0.00,,,0.00,meteohub,2013-05-19 22:05:00,
2013-05-19 18:10:00,57.2,44.2,30.29,West,274,0.0,2.0,62,0.00,,,0.00,meteohub,2013-05-19 22:10:00,
2013-05-19 18:15:00,57.0,44.6,30.29,West,274,0.0,0.0,63,0.00,,,0.00,meteohub,2013-05-19 22:15:00,
2013-05-19 18:20:00,57.0,44.1,30.29,West,274,0.0,0.0,62,0.00,,,0.00,meteohub,2013-05-19 22:20:00,
2013-05-19 18:25:00,57.0,44.1,30.29,East,100,3.0,0.0,62,0.00,,,0.00,meteohub,2013-05-19 22:25:00,
2013-05-19 18:30:00,57.0,44.1,30.29,South,173,0.0,4.0,62,0.00,,,0.00,meteohub,2013-05-19 22:30:00,
2013-05-19 18:35:00,56.8,43.9,30.29,South,173,0.0,4.0,62,0.00,,,0.00,meteohub,2013-05-19 22:35:00,
2013-05-19 18:40:00,56.8,43.9,30.29,South,173,0.0,4.0,62,0.00,,,0.00,meteohub,2013-05-19 22:40:00,
2013-05-19 18:45:00,56.8,43.9,30.29,South,173,0.0,3.0,62,0.00,,,0.00,meteohub,2013-05-19 22:45:00,
2013-05-19 18:50:00,56.7,43.7,30.29,South,173,0.0,3.0,62,0.00,,,0.00,meteohub,2013-05-19 22:50:00,
2013-05-19 18:55:00,56.7,44.2,30.29,South,173,0.0,0.0,63,0.00,,,0.00,meteohub,2013-05-19 22:55:00,
2013-05-19 19:00:00,56.5,44.1,30.29,South,173,0.0,0.0,63,0.00,,,0.00,meteohub,2013-05-19 23:00:00,
2013-05-19 19:05:00,56.5,44.1,30.29,South,173,0.0,0.0,63,0.00,,,0.00,meteohub,2013-05-19 23:05:00,
2013-05-19 19:10:00,56.5,44.1,30.29,South,173,0.0,0.0,63,0.00,,,0.00,meteohub,2013-05-19 23:10:00,
2013-05-19 19:15:00,56.3,43.9,30.29,South,173,0.0,0.0,63,0.00,,,0.00,meteohub,2013-05-19 23:15:00,
2013-05-19 19:20:00,56.3,43.9,30.29,South,173,3.0,0.0,63,0.00,,,0.00,meteohub,2013-05-19 23:20:00,
2013-05-19 19:25:00,56.3,44.2,30.29,South,173,3.0,4.0,64,0.00,,,0.00,meteohub,2013-05-19 23:25:00,
2013-05-19 19:30:00,56.3,43.9,30.29,SE,128,3.0,4.0,63,0.00,,,0.00,meteohub,2013-05-19 23:30:00,
2013-05-19 19:35:00,56.3,43.9,30.29,SE,129,5.0,5.0,63,0.00,,,0.00,meteohub,2013-05-19 23:35:00,
2013-05-19 19:40:00,56.1,44.1,30.29,ESE,121,4.0,5.0,64,0.00,,,0.00,meteohub,2013-05-19 23:40:00,
2013-05-19 19:45:00,56.1,44.6,30.29,ESE,115,5.0,6.0,65,0.00,,,0.00,meteohub,2013-05-19 23:45:00,
2013-05-19 19:50:00,55.9,44.8,30.29,ESE,116,4.0,6.0,66,0.00,,,0.00,meteohub,2013-05-19 23:50:00,
2013-05-19 19:55:00,55.9,44.8,30.29,East,99,0.0,6.0,66,0.00,,,0.00,meteohub,2013-05-19 23:55:00,
2013-05-19 20:00:00,55.9,44.8,30.29,East,99,0.0,6.0,66,0.00,,,0.00,meteohub,2013-05-20 00:00:00,
2013-05-19 20:05:00,55.9,44.8,30.29,East,81,0.0,5.0,66,0.00,,,0.00,meteohub,2013-05-20 00:05:00,
2013-05-19 20:10:00,55.8,44.6,30.29,East,81,0.0,5.0,66,0.00,,,0.00,meteohub,2013-05-20 00:10:00,
2013-05-19 20:15:00,55.8,45.0,30.29,East,81,0.0,0.0,67,0.00,,,0.00,meteohub,2013-05-20 00:15:00,
2013-05-19 20:20:00,55.8,45.0,30.29,East,81,0.0,0.0,67,0.00,,,0.00,meteohub,2013-05-20 00:20:00,
2013-05-19 20:25:00,55.8,45.0,30.26,East,81,0.0,0.0,67,0.00,,,0.00,meteohub,2013-05-20 00:25:00,
2013-05-19 20:30:00,55.6,44.8,30.26,SE,128,0.0,0.0,67,0.00,,,0.00,meteohub,2013-05-20 00:30:00,
2013-05-19 20:35:00,55.6,44.8,30.26,SE,128,0.0,4.0,67,0.00,,,0.00,meteohub,2013-05-20 00:35:00,
2013-05-19 20:40:00,55.4,44.6,30.26,SE,128,0.0,4.0,67,0.00,,,0.00,meteohub,2013-05-20 00:40:00,
2013-05-19 20:45:00,55.4,44.6,30.26,SE,128,0.0,3.0,67,0.00,,,0.00,meteohub,2013-05-20 00:45:00,
2013-05-19 20:50:00,55.4,44.6,30.26,SE,133,3.0,3.0,67,0.00,,,0.00,meteohub,2013-05-20 00:50:00,
2013-05-19 20:55:00,55.4,45.0,30.29,SSW,192,0.0,5.0,68,0.00,,,0.00,meteohub,2013-05-20 00:55:00,
2013-05-19 21:00:00,55.2,44.8,30.29,ESE,118,4.0,5.0,68,0.00,,,0.00,meteohub,2013-05-20 01:00:00,
2013-05-19 21:05:00,55.2,44.8,30.29,SE,127,6.0,6.0,68,0.00,,,0.00,meteohub,2013-05-20 01:05:00,
2013-05-19 21:10:00,55.0,44.6,30.26,SE,131,6.0,6.0,68,0.00,,,0.00,meteohub,2013-05-20 01:10:00,
2013-05-19 21:15:00,55.0,44.6,30.26,ESE,113,6.0,8.0,68,0.00,,,0.00,meteohub,2013-05-20 01:15:00,
2013-05-19 21:20:00,55.0,44.6,30.26,ESE,112,6.0,8.0,68,0.00,,,0.00,meteohub,2013-05-20 01:20:00,
2013-05-19 21:25:00,55.0,44.6,30.26,SE,126,5.0,8.0,68,0.00,,,0.00,meteohub,2013-05-20 01:25:00,
2013-05-19 21:30:00,54.9,44.4,30.26,SE,137,8.0,8.0,68,0.00,,,0.00,meteohub,2013-05-20 01:30:00,
2013-05-19 21:35:00,54.9,45.0,30.26,SE,137,8.0,8.0,69,0.00,,,0.00,meteohub,2013-05-20 01:35:00,
2013-05-19 21:40:00,54.9,45.0,30.26,SSE,159,5.0,9.0,69,0.00,,,0.00,meteohub,2013-05-20 01:40:00,
2013-05-19 21:45:00,54.7,45.1,30.26,SE,134,6.0,9.0,70,0.00,,,0.00,meteohub,2013-05-20 01:45:00,
2013-05-19 21:50:00,54.7,45.1,30.26,SE,142,2.0,9.0,70,0.00,,,0.00,meteohub,2013-05-20 01:50:00,
2013-05-19 21:55:00,54.7,45.5,30.26,ESE,120,6.0,8.0,71,0.00,,,0.00,meteohub,2013-05-20 01:55:00,
2013-05-19 22:00:00,54.7,45.5,30.26,SE,145,4.0,8.0,71,0.00,,,0.00,meteohub,2013-05-20 02:00:00,
2013-05-19 22:06:00,54.7,45.5,30.26,ESE,117,6.0,8.0,71,0.00,,,0.00,meteohub,2013-05-20 02:06:00,
2013-05-19 22:11:00,54.7,45.9,30.26,ESE,118,6.0,8.0,72,0.00,,,0.00,meteohub,2013-05-20 02:11:00,
2013-05-19 22:16:00,54.9,46.4,30.26,SE,129,6.0,8.0,73,0.00,,,0.00,meteohub,2013-05-20 02:16:00,
2013-05-19 22:21:00,54.9,46.4,30.26,ESE,120,9.0,9.0,73,0.00,,,0.00,meteohub,2013-05-20 02:21:00,
2013-05-19 22:26:00,54.7,46.2,30.26,ESE,121,8.0,9.0,73,0.00,,,0.00,meteohub,2013-05-20 02:26:00,
2013-05-19 22:31:00,54.7,46.6,30.26,ESE,120,8.0,9.0,74,0.00,,,0.00,meteohub,2013-05-20 02:31:00,
2013-05-19 22:36:00,54.7,46.6,30.26,SE,127,6.0,10.0,74,0.00,,,0.00,meteohub,2013-05-20 02:36:00,
2013-05-19 22:41:00,54.5,46.4,30.26,SE,133,8.0,10.0,74,0.00,,,0.00,meteohub,2013-05-20 02:41:00,
2013-05-19 22:46:00,54.5,46.4,30.26,ESE,123,8.0,10.0,74,0.00,,,0.00,meteohub,2013-05-20 02:46:00,
2013-05-19 22:51:00,54.5,46.4,30.26,SE,125,6.0,10.0,74,0.00,,,0.00,meteohub,2013-05-20 02:51:00,
2013-05-19 22:56:00,54.5,46.4,30.26,ESE,119,6.0,10.0,74,0.00,,,0.00,meteohub,2013-05-20 02:56:00,
2013-05-19 23:01:00,54.5,46.4,30.26,SE,130,4.0,9.0,74,0.00,,,0.00,meteohub,2013-05-20 03:01:00,
2013-05-19 23:06:00,54.3,45.9,30.26,SE,141,4.0,9.0,73,0.00,,,0.00,meteohub,2013-05-20 03:06:00,
2013-05-19 23:11:00,54.3,45.9,30.26,SE,139,4.0,9.0,73,0.00,,,0.00,meteohub,2013-05-20 03:11:00,
2013-05-19 23:16:00,54.3,45.9,30.26,SSE,149,3.0,9.0,73,0.00,,,0.00,meteohub,2013-05-20 03:16:00,
2013-05-19 23:21:00,54.3,45.9,30.26,SSE,149,2.0,7.0,73,0.00,,,0.00,meteohub,2013-05-20 03:21:00,
2013-05-19 23:26:00,54.3,45.9,30.23,SE,130,5.0,6.0,73,0.00,,,0.00,meteohub,2013-05-20 03:26:00,
2013-05-19 23:31:00,54.3,45.9,30.23,SE,137,0.0,6.0,73,0.00,,,0.00,meteohub,2013-05-20 03:31:00,
2013-05-19 23:36:00,54.3,45.9,30.23,SE,137,4.0,5.0,73,0.00,,,0.00,meteohub,2013-05-20 03:36:00,
2013-05-19 23:41:00,54.3,45.5,30.23,SSE,162,0.0,5.0,72,0.00,,,0.00,meteohub,2013-05-20 03:41:00,
2013-05-19 23:46:00,54.1,45.7,30.23,ESE,108,3.0,6.0,73,0.00,,,0.00,meteohub,2013-05-20 03:46:00,
2013-05-19 23:51:00,54.3,45.9,30.23,SE,143,0.0,6.0,73,0.00,,,0.00,meteohub,2013-05-20 03:51:00,
2013-05-19 23:56:00,54.3,45.5,30.23,SE,143,3.0,6.0,72,0.00,,,0.00,meteohub,2013-05-20 03:56:00,